Terminal Aerodrome Forecast
Issued by NWS Sterling, VA

Current Version | Previous Version | Graphics & Text | Print | Product List | Glossary On
Versions: 1 2 3 4 5 6 7 8 9 10 11 12 13 14 15 16 17 18 19 20 21 22 23 24 25 26 27 28 29
000
FTUS41 KLWX 040542 RRA
TAFIAD
TAF
KIAD 040542Z 0406/0512 VRB03KT 6SM -SHRA OVC070
     FM040800 00000KT 6SM BR OVC015
     FM041000 VRB03KT 5SM -SHRA BR OVC008
     FM041500 05004KT 5SM -SHRA OVC015
     FM042000 11006KT P6SM OVC025
     FM042300 13006KT P6SM BKN050
     FM050900 00000KT 2SM BR BKN050=

USA.gov is the U.S. government's official web portal to all federal, state and local government web resources and services.